Preview of NWS' New Version of Forecast
This preview is not operational and should not be used for support decisions.

Regional Weather Roundup (RWR)

Issued by National Weather Service (NWS)

                            
000
ASUS43 KDTX 242110
RWRMI 
MICHIGAN HOURLY REGIONAL WEATHER ROUNDUP
NATIONAL WEATHER SERVICE DETROIT/PONTIAC MI
500 PM EDT SUN MAR 24 2019

NOTE: "FAIR" INDICATES FEW OR NO CLOUDS BELOW 12,000 FEET WITH NO
SIGNIFICANT WEATHER AND/OR OBSTRUCTION TO VISIBILITY.

MIZ047>049-052>055-059>063-066>070-074>076-081>083-242200-
SOUTHEAST LOWER MICHIGAN
  
CITY           SKY/WX    TMP DP  RH WIND       PRES   REMARKS
ADRIAN         CLOUDY    47  36  65 W6        30.08F                  
ANN ARBOR      CLOUDY    49  27  42 SW9       30.06R                  
BAD AXE        FAIR      45  32  60 N9        30.05R                  
CARO           PTSUNNY   53  33  48 W7        30.03S                  
DETROIT CITY   PTSUNNY   53  24  32 SW13      30.05R                  
DETROIT        PTSUNNY   50  24  36 W13       30.07R                  
FLINT          PTSUNNY   54  32  43 NW14      30.04S                  
GROSSE ILE     CLOUDY    49  27  42 W5        30.06R                  
HILLSDALE      CLOUDY    47  40  75 CALM      30.06F                  
HOWELL         CLOUDY    54  24  31 W9G17     30.04R                  

CITY           SKY/WX    TMP DP  RH WIND       PRES   REMARKS
JACKSON        CLOUDY    49  34  56 SW12      30.06S                  
LAMBERTVILLE   CLOUDY    49  36  59 W7        30.08S                  
LANSING        FAIR      57  30  35 SW13      30.05S                  
LAPEER         FAIR      55  31  40 NW7       30.04R                  
MASON          PTSUNNY   54  29  38 SW10G17   30.05S                  
MT. CLEMENS    PTSUNNY   58  27  30 W10       30.02S                  
PONTIAC        PTSUNNY   57  25  29 NW14      30.02S                  
PORT HOPE        N/A     36  32  85 N14       30.06R WCI  27          
PORT HURON     FAIR      57  27  30 SW7       30.03S                  
TRI CITIES     FAIR      53  30  41 W14       30.05S                  
MIDLAND        FAIR      54  31  42 W8        30.03S                  
TROY           FAIR      55  19  24 SW13G20   30.05S                  
SAGINAW HB     FAIR      55  32  41 W12       30.04S                  
$$
MIZ043>046-050>051-056>058-064>065-071>073-077>080-242200-
SOUTHWEST LOWER MICHIGAN
  
CITY           SKY/WX    TMP DP  RH WIND       PRES   REMARKS
BATTLE CREEK   CLOUDY    50  36  58 SW9       30.06F                  
BENTON HARBOR  CLOUDY    47  37  68 W6        30.09R                  
BIG RAPIDS     FAIR      51  30  45 W7        30.05S                  
COLDWATER      CLOUDY    48  44  84 CALM      30.07F                  
FREMONT        FAIR      52  32  46 W7        30.07R                  
HOLLAND        CLOUDY    46  31  55 VRB5      30.09R                  
GRAND RAPIDS   PTSUNNY   54  31  41 W12       30.06R                  
IONIA          FAIR      57  24  27 W8        30.04S                  
KALAMAZOO      CLOUDY    52  39  61 SW10      30.06F                  
LUDINGTON      FAIR      41  31  67 N14G21    30.10S                  
MARSHALL       CLOUDY    50  40  70 SW7       30.06S                  
MOUNT PLEASANT FAIR      51  29  41 W9        30.05R                  
MUSKEGON       CLOUDY    47  31  53 W6        30.09S                  
SOUTH HAVEN    CLOUDY    46  34  63 NW6       30.08R                  
$$
MIZ016>042-242200-
NORTHERN LOWER MICHIGAN
  
CITY           SKY/WX    TMP DP  RH WIND       PRES   REMARKS
ALPENA         FLURRIES  32  27  81 NE14      30.14R WCI  22          
BEAVER ISLAND  CLOUDY    34  21  58 N13       30.17S WCI  25          
BELLAIRE       CLOUDY    38  29  68 N5        30.13R WCI  35          
CADILLAC       FAIR      42  31  65 N14G20    30.05R                  
CHARLEVOIX     CLOUDY    35  28  75 N12       30.18R WCI  27          
FRANKFORT      CLOUDY    41  26  55 N12G21    30.13R                  
GAYLORD        CLOUDY    33  25  72 NE7       30.09R WCI  27          
HARBOR SPRINGS CLOUDY    35  27  71 E7        30.14S WCI  29          
HOUGHTON LAKE  FAIR      48  26  42 NW12      30.05R                  
MANISTEE       FAIR      41  31  67 N9        30.11R                  
OSCODA         CLOUDY    34  28  79 NE15G23   30.11R WCI  25          
PELLSTON       CLOUDY    36  26  67 E6        30.15R WCI  31          
ROGERS CITY    CLOUDY    32  27  83 NE3       30.16R                  
TRAVERSE CITY  CLOUDY    38  29  70 N13G18    30.12R WCI  30          
$$
MIZ007>008-015-242200-
EASTERN UPPER MICHIGAN
  
CITY           SKY/WX    TMP DP  RH WIND       PRES   REMARKS
KINROSS        FAIR      33  15  47 N16       30.15  WCI  23          
MACKINAC ISLAN CLOUDY    36  23  60 NE5       30.15S WCI  32          
NEWBERRY       FAIR      30  15  51 NW13G22   30.18R WCI  20          
S. S. MARIE    FAIR      37  15  40 NW13      30.15R WCI  29          
MUNISING         N/A     27  15  61 N21       30.26R WCI  13          
$$
MIZ004>006-011>014-085-242200-
CENTRAL UPPER MICHIGAN
  
CITY           SKY/WX    TMP DP  RH WIND       PRES   REMARKS
MANISTIQUE     CLOUDY    32  10  39 N17G24    30.18S WCI  21          
ESCANABA       CLOUDY    33  16  49 N13G23    30.21R WCI  24          
MENOMINEE      CLOUDY    37  21  52 N12       30.19R WCI  29          
SAWYER-GWINN   MOSUNNY   25  18  74 N20       30.23R WCI  11          
$$
MIZ001>003-009>011-084-242200-
WESTERN UPPER MICHIGAN
  
CITY           SKY/WX    TMP DP  RH WIND       PRES   REMARKS
IRON MOUNTAIN  CLOUDY    32  20  61 N13G20    30.19R WCI  22          
HOUGHTON       FAIR      28   6  39 NE5       30.28S WCI  23          
COPPER HARBOR    N/A     25  14  63 NE7       30.33S WCI  17          
IRONWOOD       PTSUNNY   30  18  60 N10       30.25S WCI  21          
$$

ABBREVIATIONS USED IN REMARKS
   TC - TEMPERATURE IN CELSIUS
  WCI - WIND CHILL INDEX
   HX - HEAT INDEX
  VSB - VISIBILITY